Weather History for KLXV - January, 2015

Change the Weather History Date:

Thursday, January 1, 2015

  Actual Average Record
Temperature  
Mean Temperature 5 °F -  
Max Temperature 19 °F 29 °F 45 °F (1981)
Min Temperature -9 °F 4 °F -19 °F (1979)
Degree Days  
Heating Degree Days 60 48  
Month to date heating degree days 60 48  
Since 1 July heating degree days 4686 4949  
Cooling Degree Days 0 0  
Month to date cooling degree days 0 0  
Year to date cooling degree days 0 0  
Moisture  
Dew Point 6 °F    
Average Humidity 85    
Maximum Humidity 96    
Minimum Humidity 73    
Precipitation  
Precipitation 0.06 in 0.02 in 0.21 in (2014)
Month to date precipitation 0.06 0.02  
Year to date precipitation 0.06 0.02  
Sea Level Pressure  
Sea Level Pressure 29.92 in    
Wind  
Wind Speed 4 mph (SSE)    
Max Wind Speed 15 mph    
Max Gust Speed 19 mph    
Visibility 5 miles    
Events Fog , Snow    
T = Trace of Precipitation, MM = Missing Value Source: NWS Daily Summary

Daily Weather History Graph

Daily Weather History Graph

Search for Another Location

Airport or City:

Trip Planner

Search our weather history database for the weather conditions in past years. The results will help you decide how hot, cold, wet, or windy it might be!

Date:

Astronomy

Jan. 01, 2015 Rise Set
Actual Time 7:24 AM MST 4:52 PM MST
Civil Twilight 6:54 AM MST 5:22 PM MST
Nautical Twilight 6:21 AM MST 5:56 PM MST
Astronomical Twilight 5:48 AM MST 6:29 PM MST
Moon 2:27 PM MST (1/1) 3:56 AM MST (1/1)
Length of Visible Light 10h 28m
Length of Day
9h 28m
Waxing Gibbous, 88% of the Moon is Illuminated
Jan 1
Waxing Gibbous
Jan 4
Full
Jan 13
Last Quarter
Jan 20
New
Jan 26
First Quarter

Hourly Weather History & Observations

Time (MST) Temp. Windchill Dew Point Humidity Pressure Visibility Wind Dir Wind Speed Gust Speed Precip Events Conditions
12:53 AM 1.0 °F -6.7 °F -2.9 °F 83% 30.07 in 10.0 mi NE 3.5 mph - N/A   Clear
1:53 AM -4.0 °F -14.6 °F -9.0 °F 79% 30.09 in 10.0 mi NE 4.6 mph - N/A   Clear
2:53 AM -2.9 °F - -7.1 °F 82% 30.05 in 10.0 mi Calm Calm - N/A   Clear
3:53 AM -2.0 °F -10.1 °F -7.1 °F 79% 30.02 in 10.0 mi South 3.5 mph - N/A   Clear
4:53 AM -5.8 °F - -9.4 °F 84% 29.85 in 10.0 mi Calm Calm - N/A   Clear
5:53 AM -5.1 °F -13.6 °F -9.9 °F 80% 30.05 in 10.0 mi WNW 3.5 mph - N/A   Partly Cloudy
6:53 AM -2.0 °F -16.6 °F -6.0 °F 83% 30.04 in 10.0 mi ENE 8.1 mph - N/A   Clear
7:53 AM -5.1 °F -15.8 °F -8.0 °F 87% 30.06 in 10.0 mi NNE 4.6 mph - N/A   Clear
8:53 AM 9.0 °F 0.6 °F 5.0 °F 84% 29.97 in 10.0 mi ENE 4.6 mph - N/A   Mostly Cloudy
9:53 AM 5.0 °F -4.1 °F 3.9 °F 95% 30.01 in 10.0 mi South 4.6 mph - N/A   Overcast
10:53 AM 15.8 °F - 8.6 °F 73% 29.81 in 10.0 mi Calm Calm - N/A   Overcast
11:53 AM 18.0 °F - 12.9 °F 81% 29.86 in 2.5 mi Calm Calm - 0.00 in Snow Light Snow
12:02 PM 17.1 °F - 12.9 °F 84% 29.78 in 1.8 mi Calm Calm - 0.00 in Snow Light Snow
12:06 PM 17.1 °F - 12.9 °F 84% 29.78 in 2.0 mi Calm Calm - 0.00 in Snow Light Snow
12:24 PM 17.1 °F 8.7 °F 12.9 °F 84% 29.77 in 3.0 mi South 5.8 mph - 0.00 in Snow Light Snow
12:31 PM 17.1 °F 5.8 °F 12.9 °F 84% 29.77 in 1.8 mi South 9.2 mph - 0.00 in Snow Light Snow
12:46 PM 14.0 °F -0.2 °F 10.9 °F 88% 29.77 in 0.5 mi South 12.7 mph - 0.00 in Fog , Snow Snow
12:53 PM 14.0 °F -0.8 °F 10.9 °F 88% 29.87 in 0.5 mi South 13.8 mph - 0.00 in Fog , Snow Snow
1:26 PM 14.0 °F 0.5 °F 10.9 °F 88% 29.76 in 1.0 mi South 11.5 mph - 0.02 in Snow Light Snow
1:53 PM 15.1 °F 3.3 °F 10.9 °F 84% 29.90 in 2.0 mi South 9.2 mph - 0.03 in Snow Light Snow
2:11 PM 14.0 °F 2.0 °F 10.9 °F 88% 29.78 in 3.0 mi South 9.2 mph - 0.00 in Snow Light Snow
2:53 PM 14.0 °F 2.0 °F 10.0 °F 84% 29.93 in 2.5 mi South 9.2 mph - 0.00 in Snow Light Snow
2:59 PM 14.0 °F 2.0 °F 10.0 °F 84% 29.80 in 1.8 mi South 9.2 mph - 0.00 in Snow Light Snow
3:53 PM 12.9 °F 1.6 °F 10.0 °F 88% 29.96 in 1.2 mi South 8.1 mph - 0.01 in Snow Light Snow
4:25 PM 12.9 °F 3.8 °F 10.0 °F 88% 29.84 in 2.5 mi South 5.8 mph - 0.00 in Snow Light Snow
4:34 PM 12.0 °F 1.5 °F 10.0 °F 92% 29.84 in 3.0 mi South 6.9 mph - 0.00 in Snow Light Snow
4:43 PM 12.0 °F 1.5 °F 10.0 °F 92% 29.85 in 2.5 mi South 6.9 mph - 0.00 in Snow Light Snow
4:53 PM 12.0 °F 5.9 °F 10.0 °F 92% 30.03 in 2.0 mi South 3.5 mph - 0.00 in Snow Light Snow
5:13 PM 12.0 °F 5.9 °F 10.0 °F 92% 29.85 in 3.0 mi South 3.5 mph - 0.00 in Snow Light Snow
5:53 PM 12.0 °F - 9.0 °F 88% 30.03 in 2.0 mi Calm Calm - 0.01 in Snow Light Snow
6:08 PM 12.0 °F - 9.0 °F 88% 29.86 in 4.0 mi Calm Calm - 0.00 in   Overcast
6:36 PM 12.0 °F - 9.0 °F 88% 29.87 in 2.0 mi Calm Calm - 0.00 in Snow Light Snow
6:53 PM 12.0 °F 4.1 °F 8.1 °F 84% 30.03 in 1.8 mi NNE 4.6 mph - 0.00 in Snow Light Snow
7:23 PM 10.9 °F 4.7 °F 8.1 °F 88% 29.88 in 2.5 mi NNE 3.5 mph - 0.01 in   Overcast
7:35 PM 10.9 °F 4.7 °F 8.1 °F 88% 29.88 in 5.0 mi NE 3.5 mph - 0.01 in   Overcast
7:53 PM 10.9 °F - 8.1 °F 88% 30.07 in 2.0 mi Calm Calm - 0.01 in Snow Light Snow
8:00 PM 10.9 °F - 8.1 °F 88% 29.88 in 1.8 mi Calm Calm - 0.00 in Snow Light Snow
8:08 PM 10.9 °F - 8.1 °F 88% 29.88 in 3.0 mi Calm Calm - 0.00 in Snow Light Snow
8:17 PM 10.9 °F - 8.1 °F 88% 29.88 in 3.0 mi Calm Calm - 0.00 in Snow Light Snow
8:53 PM 8.1 °F - 6.1 °F 92% 29.98 in 8.0 mi Calm Calm - 0.00 in   Overcast
9:09 PM 7.0 °F - 3.9 °F 87% 29.89 in 10.0 mi Calm Calm - N/A   Scattered Clouds
9:53 PM 6.1 °F -4.3 °F 1.9 °F 83% 30.04 in 10.0 mi East 5.8 mph - N/A   Partly Cloudy
10:20 PM 6.1 °F -2.8 °F 3.0 °F 87% 29.90 in 10.0 mi ENE 4.6 mph - N/A   Mostly Cloudy
10:53 PM 5.0 °F -4.1 °F 1.9 °F 87% 30.00 in 5.0 mi SSE 4.6 mph - N/A   Overcast
11:15 PM 7.0 °F 0.1 °F 3.0 °F 84% 29.92 in 2.5 mi Variable 3.5 mph - 0.00 in Snow Light Snow
11:28 PM 5.0 °F - 1.0 °F 84% 29.92 in 4.0 mi Calm Calm - 0.00 in   Overcast
11:53 PM 3.0 °F - -0.9 °F 84% 29.99 in 6.0 mi Calm Calm - 0.00 in   Overcast